User: anonymous   Login
Location: Cossonay
(46.5833°N, 6.4167°E)
Time: 17:08:11
(UTC+00:00)
Language:

SL-4 R/B - Orbit

View from above orbital plane
View from above orbital plane
View from above satellite
View from above satellite

Ground track
Ground track

The orbit data is extracted from the following two-line orbital elements,

1 39679U 14021B   20228.42194658 -.00000103  00000-0  13566-4 0  9995
2 39679  51.6149 193.7497 0172069 149.9794 211.1177 15.06459746348237
Epoch (UTC): 15 August 2020 10:07:36
Eccentricity: 0.0172069
inclination: 51.6149°
perigee height: 428 km
apogee height: 666 km
right ascension of ascending node: 193.7497°
argument of perigee: 149.9794°
revolutions per day: 15.06459746
mean anomaly at epoch: 211.1177°
orbit number at epoch: 34823

The dashed part of the orbit path shows where the satellite is in the earth's shadow,  

DLR